Content
SEND FEEDBACK

Daily
Averages
Monthly
Summary
United States of America

LIVONIA, MICHIGAN


Home > North America > United States > Michigan
Elevation: 778 feet     Latitude: 42 13N     Longitude: 083 31W

WEATHER
 
SELECT A DAY
Number of Records: 205,124;   Date Range: 1/1/95 - 9/30/14
 
SHARE

PRINT THIS DATA

[ ← Previous Day ]
WEATHER ALMANAC - JULY 8, 2013
[ Next Day → ]
[ °C ]   °F
We're sorry. There is no daily almanac available for Livonia, Michigan on July 8, 2013.
WEATHER BY HOUR - JULY 8, 2013
[ °C ]   °F
Local TimeTemperatureDewpointHumidityBarometerVisibilityWind DirectionWind SpeedGust SpeedPrecipitationEventsConditions
1:53 AM71.1 °F66.0 °F84 %30.02 in10.0 miWSW (240°)8.1 mphClear
2:53 AM71.1 °F66.0 °F84 %30.02 in10.0 miSouth (190°)5.8 mphClear
3:53 AM71.1 °F64.0 °F78 %30.02 in10.0 miWSW (240°)6.9 mphMostly Cloudy
4:53 AM71.1 °F64.0 °F78 %30.02 in10.0 miSW (220°)4.6 mphMostly Cloudy
5:53 AM70.0 °F64.0 °F81 %30.02 in10.0 miSSW (200°)4.6 mphClear
6:53 AM71.1 °F66.0 °F84 %30.03 in10.0 miSSW (200°)6.9 mphClear
7:53 AM75.0 °F66.9 °F76 %30.04 in10.0 miSW (230°)4.6 mphPartly Cloudy
8:53 AM75.0 °F68.0 °F79 %30.03 in10.0 miSSW (210°)4.6 mph0.00 inRainLight Rain
9:53 AM78.1 °F69.1 °F74 %30.04 in10.0 miSouth (190°)5.8 mph0.00 inClear
10:53 AM79.0 °F69.1 °F72 %30.04 in10.0 miSouth (190°)8.1 mphClear
11:53 AM82.0 °F70.0 °F67 %30.03 in10.0 miSSW (210°)11.5 mphClear
12:53 PM84.0 °F72.0 °F67 %30.02 in10.0 miSouth (180°)10.4 mphClear
1:53 PM86.0 °F72.0 °F63 %30.00 in10.0 miSW (220°)11.5 mph0.00 inRainLight Rain
2:53 PM84.0 °F73.0 °F69 %29.99 in10.0 miSouth (180°)8.1 mph0.00 inMostly Cloudy
3:48 PM78.8 °F71.6 °F78 %30.01 in10.0 miENE (60°)5.8 mph0.05 inMostly Cloudy
3:53 PM80.1 °F72.0 °F76 %29.99 in10.0 miNE (50°)9.2 mph0.05 inMostly Cloudy
4:24 PM75.2 °F69.8 °F83 %30.02 in2.5 miVariable3.5 mph16.1 mph0.25 inRainHeavy Rain
4:26 PM75.2 °F69.8 °F83 %30.02 in1.8 miCalm0.36 inRainHeavy Rain
4:36 PM75.2 °F69.8 °F83 %30.01 in6.0 miEast (100°)4.6 mph0.38 inRainLight Rain
4:53 PM77.0 °F70.0 °F79 %30.00 in8.0 miVariable3.5 mph0.41 inRainLight Rain
5:53 PM78.1 °F70.0 °F76 %29.99 in10.0 miCalm0.02 inRainLight Rain
6:53 PM77.0 °F71.1 °F82 %29.99 in10.0 miSE (130°)5.8 mphOvercast
7:53 PM77.0 °F71.1 °F82 %29.99 in10.0 miSouth (180°)6.9 mphOvercast
8:53 PM77.0 °F71.1 °F82 %29.99 in10.0 miSouth (180°)5.8 mphOvercast
9:53 PM75.9 °F70.0 °F82 %29.99 in10.0 miSouth (170°)4.6 mph0.00 inOvercast
10:53 PM75.9 °F70.0 °F82 %29.99 in10.0 miSouth (180°)6.9 mphOvercast
11:53 PM75.9 °F70.0 °F82 %29.99 in10.0 miSouth (170°)6.9 mphOvercast
Hourly data recorded from KYIP, located miles away from Livonia, Michigan







STORIES FROM OUR PARTNERS